User: anonymous   Login
Location: South Tamworth Observatory
(43.8246°N, 71.3026°W)
Time: 16:11:38
(UTC-05:00)
Language:

Cosmos 2208 Rocket - Orbit

View from above orbital plane
View from above orbital plane
View from above satellite
View from above satellite

Ground track
Ground track

The orbit data is extracted from the following two-line orbital elements,

1 22081U 92053B   15032.04853557  .00000125  00000-0  54535-4 0  7880
2 22081 074.0428 221.6239 0035501 041.9604 318.4257 14.33177554174612
Epoch (UTC): 01 February 2015 01:09:53
Eccentricity: 0.0035501
inclination: 74.0428°
perigee height: 756 km
apogee height: 806 km
right ascension of ascending node: 221.6239°
argument of perigee: 41.9604°
revolutions per day: 14.33177554
mean anomaly at epoch: 318.4257°
orbit number at epoch: 17461

The dashed part of the orbit path shows where the satellite is in the earth's shadow,  

DLR